When you browse on this site, cookies collect data to enhance your experience and personalize the content and advertising you see.
Visit our Privacy Policy to learn more. By continuing to use the site, you agree to this use of cookies and data.
  • In Deutschland
  • Länderverzeichnis
  • Für 7 Tage
  • Wassertemperatur
  • Wetterkarte
  • Widgets
  • user-avatar
    Anmelden

    Stündliche Wetter Lysobyki

    Heute, 5 Juni, Freitag

    Zeit Temperatur Niederschläge Wind Luftdruck Luftfeuchtigkeit
    00:00 +10°C° 0 mm 4 m/S 740 mmHg 81%
    01:00 +10°C° 0 mm 4 m/S 740 mmHg 81%
    02:00 +10°C° 0 mm 4 m/S 739 mmHg 82%
    03:00 +10°C° 0 mm 4 m/S 739 mmHg 82%
    04:00 +10°C° 0 mm 4 m/S 738 mmHg 83%
    05:00 +12°C° 0 mm 4 m/S 738 mmHg 83%
    06:00 +13°C° 0 mm 5 m/S 738 mmHg 82%
    07:00 +14°C° 0 mm 5 m/S 738 mmHg 82%
    08:00 +16°C° 0.1 mm 5 m/S 738 mmHg 79%
    09:00 +19°C° 0.1 mm 5 m/S 738 mmHg 76%
    10:00 +21°C° 0.1 mm 5 m/S 738 mmHg 73%
    11:00 +22°C° 0.7 mm 6 m/S 738 mmHg 72%
    12:00 +22°C° 0.7 mm 6 m/S 738 mmHg 70%
    13:00 +23°C° 0.7 mm 7 m/S 737 mmHg 68%
    14:00 +21°C° 0.8 mm 6 m/S 738 mmHg 74%
    15:00 +20°C° 0.8 mm 6 m/S 738 mmHg 79%
    16:00 +19°C° 0.8 mm 5 m/S 738 mmHg 85%
    17:00 +18°C° 0.1 mm 4 m/S 739 mmHg 86%
    18:00 +17°C° 0.1 mm 4 m/S 739 mmHg 88%
    19:00 +17°C° 0.1 mm 3 m/S 739 mmHg 90%
    20:00 +16°C° 0.6 mm 2 m/S 740 mmHg 91%
    21:00 +15°C° 0.6 mm 2 m/S 740 mmHg 93%
    22:00 +15°C° 0.6 mm 1 m/S 741 mmHg 95%
    23:00 +14°C° 0.1 mm 2 m/S 741 mmHg 95%

    Morgen, 6 Juni, Samstag

    Zeit Temperatur Niederschläge Wind Luftdruck Luftfeuchtigkeit
    00:00 +13°C° 0.1 mm 3 m/S 741 mmHg 96%
    01:00 +12°C° 0.1 mm 3 m/S 741 mmHg 96%
    02:00 +12°C° 0 mm 4 m/S 742 mmHg 95%
    03:00 +12°C° 0 mm 4 m/S 742 mmHg 94%
    04:00 +12°C° 0 mm 5 m/S 742 mmHg 93%
    05:00 +13°C° 0 mm 6 m/S 743 mmHg 87%
    06:00 +14°C° 0 mm 6 m/S 744 mmHg 81%
    07:00 +15°C° 0 mm 7 m/S 744 mmHg 76%
    08:00 +16°C° 0 mm 7 m/S 745 mmHg 70%
    09:00 +17°C° 0 mm 7 m/S 745 mmHg 64%
    10:00 +18°C° 0 mm 7 m/S 745 mmHg 59%
    11:00 +20°C° 0 mm 7 m/S 746 mmHg 56%
    12:00 +21°C° 0 mm 7 m/S 746 mmHg 53%
    13:00 +23°C° 0 mm 7 m/S 746 mmHg 50%
    14:00 +22°C° 0 mm 5 m/S 746 mmHg 55%
    15:00 +21°C° 0 mm 4 m/S 746 mmHg 60%
    16:00 +20°C° 0 mm 3 m/S 746 mmHg 65%
    17:00 +20°C° 0 mm 2 m/S 746 mmHg 68%
    18:00 +20°C° 0 mm 2 m/S 746 mmHg 70%
    19:00 +20°C° 0 mm 1 m/S 747 mmHg 73%
    20:00 +19°C° 0.1 mm 2 m/S 747 mmHg 76%
    21:00 +18°C° 0.1 mm 2 m/S 747 mmHg 79%
    22:00 +17°C° 0.1 mm 2 m/S 747 mmHg 81%
    23:00 +17°C° 0.1 mm 2 m/S 747 mmHg 85%

    übermorgen, 7 Juni, Sonntag

    Zeit Temperatur Niederschläge Wind Luftdruck Luftfeuchtigkeit
    00:00 +16°C° 0.1 mm 2 m/S 747 mmHg 88%
    01:00 +15°C° 0.1 mm 2 m/S 747 mmHg 91%
    02:00 +15°C° 0.3 mm 2 m/S 747 mmHg 93%
    03:00 +15°C° 0.3 mm 2 m/S 746 mmHg 95%
    04:00 +15°C° 0.3 mm 2 m/S 746 mmHg 96%
    05:00 +16°C° 0 mm 3 m/S 746 mmHg 94%
    06:00 +18°C° 0 mm 3 m/S 746 mmHg 92%
    07:00 +19°C° 0 mm 3 m/S 746 mmHg 90%
    08:00 +20°C° 0 mm 3 m/S 746 mmHg 85%
    09:00 +21°C° 0 mm 3 m/S 746 mmHg 80%
    10:00 +24°C° 0 mm 2 m/S 747 mmHg 76%
    11:00 +24°C° 0 mm 2 m/S 747 mmHg 72%
    12:00 +25°C° 0 mm 2 m/S 747 mmHg 69%
    13:00 +26°C° 0 mm 2 m/S 747 mmHg 66%
    14:00 +25°C° 1.2 mm 2 m/S 747 mmHg 71%
    15:00 +24°C° 1.2 mm 3 m/S 747 mmHg 76%
    16:00 +22°C° 1.2 mm 3 m/S 747 mmHg 81%
    17:00 +21°C° 0.3 mm 3 m/S 747 mmHg 85%
    18:00 +20°C° 0.3 mm 2 m/S 748 mmHg 88%
    19:00 +19°C° 0.3 mm 2 m/S 748 mmHg 92%
    20:00 +19°C° 0.4 mm 1 m/S 748 mmHg 93%
    21:00 +19°C° 0.4 mm 1 m/S 749 mmHg 94%
    22:00 +18°C° 0.4 mm 1 m/S 749 mmHg 96%
    23:00 +16°C° 0.3 mm 1 m/S 749 mmHg 96%

    8 Juni, Montag

    Zeit Temperatur Niederschläge Wind Luftdruck Luftfeuchtigkeit
    00:00 +16°C° 0.3 mm 2 m/S 749 mmHg 96%
    01:00 +16°C° 0.3 mm 2 m/S 749 mmHg 97%
    02:00 +16°C° 0 mm 2 m/S 749 mmHg 97%
    03:00 +16°C° 0 mm 2 m/S 749 mmHg 97%
    04:00 +16°C° 0 mm 2 m/S 749 mmHg 98%
    05:00 +17°C° 0 mm 3 m/S 749 mmHg 95%
    06:00 +18°C° 0 mm 3 m/S 749 mmHg 93%
    07:00 +19°C° 0 mm 3 m/S 749 mmHg 90%
    08:00 +21°C° 0 mm 3 m/S 749 mmHg 85%
    09:00 +22°C° 0 mm 3 m/S 749 mmHg 79%
    10:00 +25°C° 0 mm 3 m/S 749 mmHg 73%
    11:00 +25°C° 1.7 mm 3 m/S 749 mmHg 72%
    12:00 +25°C° 1.7 mm 3 m/S 748 mmHg 71%
    13:00 +26°C° 1.7 mm 3 m/S 748 mmHg 70%
    14:00 +26°C° 0.6 mm 3 m/S 748 mmHg 72%
    15:00 +26°C° 0.6 mm 3 m/S 748 mmHg 73%
    16:00 +26°C° 0.6 mm 3 m/S 747 mmHg 74%
    17:00 +24°C° 0.6 mm 3 m/S 747 mmHg 78%
    18:00 +22°C° 0.6 mm 3 m/S 747 mmHg 82%
    19:00 +21°C° 0.6 mm 3 m/S 747 mmHg 85%
    20:00 +21°C° 0.5 mm 3 m/S 747 mmHg 87%
    21:00 +20°C° 0.5 mm 3 m/S 747 mmHg 88%
    22:00 +19°C° 0.5 mm 2 m/S 747 mmHg 90%
    23:00 +19°C° 0 mm 2 m/S 747 mmHg 90%

    9 Juni, Dienstag

    Zeit Temperatur Niederschläge Wind Luftdruck Luftfeuchtigkeit
    00:00 +19°C° 0 mm 2 m/S 747 mmHg 91%
    01:00 +18°C° 0 mm 2 m/S 747 mmHg 92%
    02:00 +18°C° 0 mm 2 m/S 747 mmHg 93%
    03:00 +18°C° 0 mm 2 m/S 747 mmHg 94%
    04:00 +18°C° 0 mm 3 m/S 747 mmHg 95%
    05:00 +19°C° 0 mm 3 m/S 747 mmHg 92%
    06:00 +20°C° 0 mm 3 m/S 748 mmHg 89%
    07:00 +21°C° 0 mm 3 m/S 748 mmHg 87%
    08:00 +24°C° 0.1 mm 2 m/S 748 mmHg 80%
    09:00 +25°C° 0.1 mm 2 m/S 748 mmHg 73%
    10:00 +27°C° 0.1 mm 2 m/S 748 mmHg 67%
    11:00 +27°C° 0.2 mm 2 m/S 748 mmHg 63%
    12:00 +28°C° 0.2 mm 2 m/S 748 mmHg 59%
    13:00 +29°C° 0.2 mm 1 m/S 748 mmHg 55%
    14:00 +29°C° 0.3 mm 1 m/S 748 mmHg 55%
    15:00 +29°C° 0.3 mm 1 m/S 748 mmHg 55%
    16:00 +29°C° 0.3 mm 1 m/S 747 mmHg 56%
    17:00 +27°C° 0.6 mm 2 m/S 748 mmHg 63%
    18:00 +26°C° 0.6 mm 2 m/S 748 mmHg 71%
    19:00 +24°C° 0.6 mm 2 m/S 748 mmHg 79%
    20:00 +23°C° 0.1 mm 1 m/S 748 mmHg 80%
    21:00 +22°C° 0.1 mm 1 m/S 748 mmHg 82%
    22:00 +22°C° 0.1 mm 1 m/S 749 mmHg 84%
    23:00 +21°C° 0.2 mm 1 m/S 749 mmHg 86%

    10 Juni, Mittwoch

    Zeit Temperatur Niederschläge Wind Luftdruck Luftfeuchtigkeit
    00:00 +21°C° 0.2 mm 1 m/S 749 mmHg 88%
    01:00 +20°C° 0.2 mm 1 m/S 749 mmHg 89%
    02:00 +20°C° 0.1 mm 1 m/S 749 mmHg 90%
    03:00 +20°C° 0.1 mm 1 m/S 749 mmHg 91%
    04:00 +19°C° 0.1 mm 1 m/S 749 mmHg 92%
    05:00 +21°C° 0 mm 1 m/S 750 mmHg 88%
    06:00 +22°C° 0 mm 1 m/S 750 mmHg 85%
    07:00 +23°C° 0 mm 1 m/S 750 mmHg 81%
    08:00 +25°C° 0 mm 1 m/S 750 mmHg 75%
    09:00 +26°C° 0 mm 1 m/S 750 mmHg 69%
    10:00 +27°C° 0 mm 1 m/S 750 mmHg 62%
    11:00 +28°C° 0.3 mm 1 m/S 750 mmHg 60%
    12:00 +29°C° 0.3 mm 1 m/S 750 mmHg 57%
    13:00 +29°C° 0.3 mm 1 m/S 750 mmHg 55%
    14:00 +29°C° 0.6 mm 1 m/S 750 mmHg 56%
    15:00 +29°C° 0.6 mm 1 m/S 750 mmHg 57%
    16:00 +29°C° 0.6 mm 1 m/S 750 mmHg 59%
    17:00 +27°C° 0.6 mm 1 m/S 750 mmHg 65%
    18:00 +26°C° 0.6 mm 1 m/S 750 mmHg 71%
    19:00 +25°C° 0.6 mm 1 m/S 750 mmHg 76%
    20:00 +24°C° 0.3 mm 1 m/S 750 mmHg 79%
    21:00 +23°C° 0.3 mm 1 m/S 751 mmHg 81%
    22:00 +22°C° 0.3 mm 1 m/S 751 mmHg 84%
    23:00 +22°C° 0 mm 1 m/S 751 mmHg 85%
    Mehr zeigen